Estherville, IA

11:12 PM CDT on June 28, 2017 (GMT -0500)
Estherville Municipal

Weather History for KEST - August, 2012

Change the Weather History Date:

Thursday, August 23, 2012

  Actual Average Record
Temperature  
Mean Temperature 75 °F 68 °F  
Max Temperature 90 °F 79 °F 98 °F (1948)
Min Temperature 60 °F 57 °F 44 °F (1984)
Degree Days  
Heating Degree Days 0 1  
Month to date heating degree days 31 12  
Since 1 June heating degree days 49 62  
Since 1 July heating degree days 31 21  
Cooling Degree Days 10 4  
Month to date cooling degree days 103 120  
Year to date cooling degree days 761 512  
Since 1 June cooling degree days 672 476  
Growing Degree Days 25 (Base 50)    
Moisture  
Dew Point 59 °F    
Average Humidity 63    
Maximum Humidity 84    
Minimum Humidity 41    
Precipitation  
Precipitation 0.00 in 0.10 in 0.87 in (2010)
Month to date precipitation 0.04 2.98  
Year to date precipitation 15.51  
Sea Level Pressure  
Sea Level Pressure 29.86 in    
Wind  
Wind Speed 13 mph (South)    
Max Wind Speed 30 mph    
Max Gust Speed 40 mph    
Visibility 10 miles    
Events      
T = Trace of Precipitation, MM = Missing Value Source: NWS Daily Summary

Daily Weather History Graph

Daily Weather History Graph

Search for Another Location

Airport or City:

Trip Planner

Search our weather history database for the weather conditions in past years. The results will help you decide how hot, cold, wet, or windy it might be!

Date:

Astronomy

Aug. 23, 2012 Rise Set
Actual Time 6:33 AM CDT 8:08 PM CDT
Civil Twilight 6:03 AM CDT 8:38 PM CDT
Nautical Twilight 5:26 AM CDT 9:14 PM CDT
Astronomical Twilight 4:47 AM CDT 9:53 PM CDT
Moon 1:36 PM CDT (8/23) 11:23 PM CDT (8/23)
Length of Visible Light 14h 35m
Length of Day
13h 35m
Waxing Crescent, 40% of the Moon is Illuminated
Aug 23
Waxing Crescent
Aug 24
First Quarter
Aug 31
Full
Sep 8
Last Quarter
Sep 15
New

Hourly Weather History & Observations

Time (CDT) Temp. Heat Index Dew Point Humidity Pressure Visibility Wind Dir Wind Speed Gust Speed Precip Events Conditions
12:52 AM 61.0 °F - 55.9 °F 83% 29.89 in 10.0 mi South 5.8 mph - N/A   Clear
1:52 AM 60.1 °F - 55.9 °F 86% 29.88 in 10.0 mi South 8.1 mph - N/A   Clear
2:52 AM 62.1 °F - 55.0 °F 78% 29.87 in 10.0 mi South 9.2 mph - N/A   Clear
3:52 AM 62.1 °F - 55.0 °F 78% 29.88 in 10.0 mi South 9.2 mph - N/A   Clear
4:52 AM 63.0 °F - 55.0 °F 75% 29.89 in 10.0 mi South 8.1 mph - N/A   Clear
5:52 AM 62.1 °F - 55.0 °F 78% 29.90 in 10.0 mi South 9.2 mph - N/A   Clear
6:52 AM 62.1 °F - 54.0 °F 75% 29.90 in 10.0 mi South 9.2 mph - N/A   Clear
7:52 AM 64.9 °F - 55.0 °F 70% 29.90 in 10.0 mi South 10.4 mph - N/A   Clear
8:52 AM 69.1 °F - 55.9 °F 63% 29.90 in 10.0 mi South 11.5 mph - N/A   Clear
9:52 AM 75.9 °F - 59.0 °F 56% 29.89 in 10.0 mi South 11.5 mph - N/A   Clear
10:52 AM 81.0 °F 81.9 °F 62.1 °F 52% 29.88 in 10.0 mi South 18.4 mph 29.9 mph N/A   Clear
11:52 AM 84.9 °F 85.9 °F 63.0 °F 48% 29.86 in 9.0 mi South 21.9 mph 35.7 mph N/A   Clear
12:52 PM 87.1 °F 87.8 °F 63.0 °F 44% 29.85 in 9.0 mi SSW 19.6 mph 32.2 mph N/A   Partly Cloudy
1:52 PM 86.0 °F 86.3 °F 62.1 °F 44% 29.84 in 10.0 mi SSW 19.6 mph 31.1 mph N/A   Mostly Cloudy
2:52 PM 89.1 °F 89.3 °F 62.1 °F 40% 29.83 in 10.0 mi South 24.2 mph 34.5 mph N/A   Partly Cloudy
3:52 PM 90.0 °F 90.3 °F 62.1 °F 39% 29.82 in 10.0 mi South 17.3 mph 31.1 mph N/A   Partly Cloudy
4:52 PM 89.1 °F 89.3 °F 62.1 °F 40% 29.83 in 10.0 mi South 18.4 mph 28.8 mph N/A   Clear
5:52 PM 88.0 °F 88.4 °F 62.1 °F 42% 29.82 in 10.0 mi SSW 21.9 mph 28.8 mph N/A   Scattered Clouds
6:52 PM 84.0 °F 84.5 °F 62.1 °F 47% 29.81 in 10.0 mi SSW 12.7 mph 23.0 mph N/A   Partly Cloudy
8:52 PM 80.1 °F 81.1 °F 61.0 °F 52% 29.81 in 10.0 mi SSW 13.8 mph - N/A   Clear
9:52 PM 77.0 °F - 61.0 °F 58% 29.80 in 10.0 mi SSW 9.2 mph - N/A   Clear
10:52 PM 73.0 °F - 62.1 °F 68% 29.82 in 10.0 mi South 5.8 mph - N/A   Partly Cloudy
11:52 PM 72.0 °F - 62.1 °F 71% 29.82 in 10.0 mi South 8.1 mph - N/A   Clear